Tracking 17884 objects as of 4-December-2016
HD Live streaming from Space Station
objects crossing your sky now

SL-16 DEB

Track SL-16 DEB now!
10-day predictions


NORAD ID: 28354
Int'l Code: 2004-021C
Perigee: 848.4 km
Apogee: 1,177.9 km
Inclination: 71.0 °
Period: 105.2 minutes
Semi major axis: 7384 km
RCS: 0.0814 m2 (small)
Launch date: June 10, 2004
Source: Commonwealth of Independent States (former USSR) (CIS)
Launch site: TYURATAM MISSILE AND SPACE COMPLEX (TTMTR)

Note: This is SATELLITE DEBRIS
Your satellite tracking list
Your tracking list is empty





NASA's NSSDC Master Catalog

Two Line Element Set (TLE):
1 28354U 04021C   16338.49521919 +.00000065 +00000-0 +10590-3 0  9999
2 28354 070.9574 092.3204 0223135 191.2537 168.3527 13.68207258622835
Source of the keplerian elements: AFSPC